Home > Weather > Edmonton > Past weeks

Flag for Canada Past Weather in Edmonton, Alberta, Canada — Yesterday and Last 2 Weeks

Now
60 °F

Refreshingly cool.


Feels Like: 60 °F
Forecast: 48 / 71 °F
Wind: 6 mph from South

Location: Edmonton Municipal

Current Time: May 31, 2016 at 9:43:28 PM

Latest Report: May 31, 2016 at 9:00 PM


Visibility: N/A

Pressure: 30.04 "Hg (27.68 "Hg at 692m altitude)

Humidity: 43%

Dew Point: 37 °F

Location of EdmontonLocation

Past Weather in Edmonton — Graph

°F

Edmonton Temperature Yesterday

Maximum temperature yesterday: 53 °F (at 7:00 PM)
Minimum temperature yesterday: 44 °F (at 7:00 AM)
Average temperature yesterday: 49 °F

High & Low Weather Summary for the Past Weeks

 TemperatureHumidityPressure
High79 °F (May 18, 2:00 PM)100% (May 20, 4:00 AM)30.27 "Hg (May 20, 4:00 AM)
Low36 °F (May 20, 4:00 AM)13% (May 16, 8:00 PM)29.46 "Hg (May 22, 1:00 PM)
Average53 °F73%29.87 "Hg
* Reported May 16 8:00 PM — May 31 8:00 PM, Edmonton, Weather by CustomWeather, © 2016

Note: Actual official high and low records may vary slightly from our data, if they occured in-between our weather recording intervals... More about our weather records

Advertising

Edmonton Weather History for the Previous 24 Hours

Scroll right to see more
 ConditionsComfort  
Time TempWeatherWind HumidityBarometerVisibility
8:00 PM
Tue, May 31
64 °FMild.6 mph32%30.05 "HgN/A
7:00 PM64 °FMild.5 mph33%30.07 "HgN/A
6:00 PM65 °FMild.3 mph31%30.09 "HgN/A
5:00 PM65 °FMild.3 mph35%30.11 "HgN/A
4:00 PM62 °FRefreshingly cool.1 mph44%30.14 "HgN/A
3:00 PM63 °FMild.3 mph39%30.15 "HgN/A
2:00 PM63 °FMild.3 mph45%30.17 "HgN/A
1:00 PM61 °FRefreshingly cool.3 mph50%30.19 "HgN/A
12:00 PM60 °FRefreshingly cool.2 mph56%30.20 "HgN/A
11:00 AM58 °FCool.3 mph64%30.22 "HgN/A
10:00 AM56 °FCool.3 mph66%30.24 "HgN/A
9:00 AM53 °FCool.2 mph68%30.24 "HgN/A
8:00 AM49 °FCool.6 mph74%30.26 "HgN/A
7:00 AM46 °FCool.3 mph82%30.27 "HgN/A
6:00 AM43 °FQuite cool.5 mph87%30.27 "HgN/A
5:00 AM44 °FQuite cool.6 mph85%30.27 "HgN/A
4:00 AM45 °FCool.6 mph83%30.27 "HgN/A
3:00 AM47 °FCool.6 mph79%30.27 "HgN/A
2:00 AM49 °FCool.7 mph77%30.26 "HgN/A
1:00 AM50 °FCool.6 mph80%30.26 "HgN/A
12:00 AM51 °FCool.3 mph79%30.26 "HgN/A
11:00 PM
Mon, May 30
52 °FCool.6 mph76%30.26 "HgN/A
10:00 PM52 °FCool.5 mph75%30.25 "HgN/A
9:00 PM51 °FCool.5 mph79%30.24 "HgN/A
Weather by CustomWeather, © 2016

See weather overviewHow to use our weather pages